{"data":{"norad_id":58932,"epoch":"2026-05-24T18:45:50.558688Z","epoch_age_seconds":96914,"freshness":"FRESH","line1":"1 58932U 24027B   26144.78183517  .00000247  00000+0  19725-4 0  9999","line2":"2 58932  53.1612 315.8123 0001304  89.7447 270.3703 15.31701492128980","mean_motion":15.31701492,"eccentricity":0.0001304,"inclination_deg":53.1612,"raan_deg":315.8123,"arg_perigee_deg":89.7447,"mean_anomaly_deg":270.3703,"bstar":1.9725e-5,"rev_number":12898,"period_min":94.01309638471,"perigee_km":469.84245467468,"apogee_km":471.62864063511,"semimajor_km":6848.8725476549,"source":"CELESTRAK","updated_at":"2026-05-25T13:38:18.788125Z"}}